User: anonymous   Login
Location: Unspecified
(0.0000°N, 0.0000°E)
Time: 08:17:34
(UTC+00:00)
Language:

EXPRESS MD2 - Orbit

View from above orbital plane
View from above orbital plane
View from above satellite
View from above satellite

Ground track
Ground track

The orbit data is extracted from the following two-line orbital elements,

1 38745U 12044B   19051.93361254 +.00008232 +33208-5 +23998-3 0  9997
2 38745 049.8857 267.3055 2237176 111.0342 274.3149 10.96833896254248
Epoch (UTC): 20 February 2019 22:24:24
Eccentricity: 0.2237176
inclination: 49.8857°
perigee height: 264 km
apogee height: 4093 km
right ascension of ascending node: 267.3055°
argument of perigee: 111.0342°
revolutions per day: 10.96833896
mean anomaly at epoch: 274.3149°
orbit number at epoch: 25424

The dashed part of the orbit path shows where the satellite is in the earth's shadow,  

DLR